Station Historical Data
Daily Summary for November 27, 2017 Units:  Metric    English   Both
« Previous Day
Next Day »
Daily Weekly Monthly Yearly Custom
  High: Low: Average:
Temperature: 6.2 °C -1.5 °C 2.4 °C
Dew Point: -0.9 °C -4.3 °C -2.3 °C
Humidity: 82% 58% 71%
Wind Speed: 16.1km/h 0km/h 5.6km/h
Wind Gust: 29km/h - -
Wind- - SW
Pressure: 1023.2 hPa 1013.1 hPa -
Precipitation: 0 mm    
Historical Graphs
 
 
Tabular Data for November 27, 2017
Time Temperature Dew Point Pressure Wind Wind Speed Wind Gust Humidity Rainfall Rate (Hourly)
00:04 4.4 °C -1.8 °C 1013.4 hPa West 6.4 km/h 24.1 km/h 64% 0 mm
00:09 4.3 °C -1.7 °C 1013.4 hPa West 14.5 km/h 22.5 km/h 65% 0 mm
00:14 4.3 °C -1.7 °C 1013.4 hPa SW 12.9 km/h 19.3 km/h 65% 0 mm
00:19 4.2 °C -1.8 °C 1013.4 hPa WSW 8 km/h 17.7 km/h 65% 0 mm
00:24 4.2 °C -1.6 °C 1013.4 hPa West 11.3 km/h 24.1 km/h 66% 0 mm
00:29 4.2 °C -1.6 °C 1013.1 hPa West 11.3 km/h 24.1 km/h 66% 0 mm
00:34 4.1 °C -1.7 °C 1013.1 hPa West 11.3 km/h 20.9 km/h 66% 0 mm
00:39 4.1 °C -1.7 °C 1013.1 hPa West 11.3 km/h 25.7 km/h 66% 0 mm
00:44 3.9 °C -1.8 °C 1013.1 hPa West 11.3 km/h 25.7 km/h 66% 0 mm
00:49 3.9 °C -1.7 °C 1013.1 hPa West 9.7 km/h 20.9 km/h 67% 0 mm
00:54 3.8 °C -1.8 °C 1013.1 hPa West 9.7 km/h 20.9 km/h 67% 0 mm
00:59 3.8 °C -1.8 °C 1013.4 hPa West 9.7 km/h 24.1 km/h 67% 0 mm
01:04 3.8 °C -1.8 °C 1013.4 hPa West 12.9 km/h 24.1 km/h 67% 0 mm
01:09 3.8 °C -1.8 °C 1013.4 hPa West 11.3 km/h 22.5 km/h 67% 0 mm
01:14 3.7 °C -1.7 °C 1013.4 hPa WNW 6.4 km/h 22.5 km/h 68% 0 mm
01:24 3.5 °C -1.8 °C 1013.4 hPa West 9.7 km/h 19.3 km/h 68% 0 mm
01:29 3.5 °C -1.7 °C 1013.8 hPa West 11.3 km/h 19.3 km/h 69% 0 mm
01:34 3.4 °C -1.8 °C 1013.8 hPa West 6.4 km/h 20.9 km/h 69% 0 mm
01:39 3.4 °C -1.8 °C 1013.8 hPa NNW 9.7 km/h 19.3 km/h 69% 0 mm
01:44 3.4 °C -1.8 °C 1014.1 hPa WSW 4.8 km/h 20.9 km/h 69% 0 mm
01:49 3.3 °C -1.8 °C 1014.1 hPa WNW 12.9 km/h 22.5 km/h 69% 0 mm
01:54 3.3 °C -1.6 °C 1014.1 hPa West 9.7 km/h 22.5 km/h 70% 0 mm
01:59 3.3 °C -1.6 °C 1014.1 hPa West 9.7 km/h 20.9 km/h 70% 0 mm
02:04 3.3 °C -1.6 °C 1014.4 hPa West 11.3 km/h 25.7 km/h 70% 0 mm
02:09 3.4 °C -1.6 °C 1014.4 hPa West 11.3 km/h 25.7 km/h 70% 0 mm
02:14 3.3 °C -1.6 °C 1014.4 hPa West 11.3 km/h 24.1 km/h 70% 0 mm
02:19 3.3 °C -1.6 °C 1014.4 hPa WNW 8 km/h 20.9 km/h 70% 0 mm
02:24 3.3 °C -1.4 °C 1014.4 hPa West 11.3 km/h 29 km/h 71% 0 mm
02:29 3.3 °C -1.6 °C 1014.4 hPa West 6.4 km/h 19.3 km/h 70% 0 mm
02:34 3.3 °C -1.5 °C 1014.8 hPa West 6.4 km/h 17.7 km/h 71% 0 mm
02:39 3.3 °C -1.5 °C 1014.8 hPa West 8 km/h 22.5 km/h 71% 0 mm
02:44 3.2 °C -1.6 °C 1014.8 hPa West 14.5 km/h 25.7 km/h 71% 0 mm
02:49 3.2 °C -1.6 °C 1014.8 hPa West 4.8 km/h 19.3 km/h 71% 0 mm
02:54 3.1 °C -1.5 °C 1014.8 hPa West 9.7 km/h 19.3 km/h 72% 0 mm
02:59 2.9 °C -1.6 °C 1014.8 hPa West 8 km/h 17.7 km/h 72% 0 mm
03:04 2.9 °C -1.6 °C 1014.8 hPa West 9.7 km/h 22.5 km/h 72% 0 mm
03:09 2.9 °C -1.6 °C 1014.8 hPa West 11.3 km/h 24.1 km/h 72% 0 mm
03:14 2.9 °C -1.4 °C 1014.4 hPa West 11.3 km/h 24.1 km/h 73% 0 mm
03:19 2.9 °C -1.5 °C 1014.8 hPa West 9.7 km/h 22.5 km/h 73% 0 mm
03:24 2.8 °C -1.6 °C 1014.8 hPa WNW 12.9 km/h 17.7 km/h 73% 0 mm
03:29 2.8 °C -1.6 °C 1014.8 hPa WNW 14.5 km/h 19.3 km/h 73% 0 mm
03:34 2.8 °C -1.4 °C 1014.8 hPa West 11.3 km/h 19.3 km/h 74% 0 mm
03:39 2.8 °C -1.3 °C 1014.8 hPa WNW 8 km/h 17.7 km/h 74% 0 mm
03:44 2.8 °C -1.4 °C 1014.8 hPa West 8 km/h 16.1 km/h 74% 0 mm
03:49 2.8 °C -1.4 °C 1015.1 hPa West 9.7 km/h 17.7 km/h 74% 0 mm
03:54 2.8 °C -1.4 °C 1015.1 hPa WNW 9.7 km/h 19.3 km/h 74% 0 mm
03:59 2.8 °C -1.4 °C 1015.1 hPa WNW 9.7 km/h 19.3 km/h 74% 0 mm
04:04 2.8 °C -1.4 °C 1015.5 hPa West 9.7 km/h 19.3 km/h 74% 0 mm
04:09 2.7 °C -1.3 °C 1015.5 hPa West 9.7 km/h 19.3 km/h 75% 0 mm
04:14 2.7 °C -1.3 °C 1015.8 hPa West 8 km/h 14.5 km/h 75% 0 mm
04:19 2.6 °C -1.4 °C 1015.8 hPa West 8 km/h 16.1 km/h 75% 0 mm
04:24 2.6 °C -1.4 °C 1015.8 hPa West 8 km/h 12.9 km/h 75% 0 mm
04:29 2.6 °C -1.3 °C 1015.8 hPa West 8 km/h 16.1 km/h 76% 0 mm
04:34 2.6 °C -1.3 °C 1016.1 hPa WNW 11.3 km/h 16.1 km/h 76% 0 mm
04:39 2.5 °C -1.3 °C 1016.1 hPa West 4.8 km/h 14.5 km/h 76% 0 mm
04:44 2.4 °C -1.3 °C 1016.1 hPa WNW 4.8 km/h 12.9 km/h 76% 0 mm
04:49 2.4 °C -1.4 °C 1015.8 hPa West 16.1 km/h 17.7 km/h 76% 0 mm
04:54 2.3 °C -1.4 °C 1015.8 hPa West 6.4 km/h 16.1 km/h 76% 0 mm
04:59 2.3 °C -1.3 °C 1015.8 hPa West 8 km/h 16.1 km/h 77% 0 mm
05:04 2.4 °C -1.2 °C 1016.1 hPa West 8 km/h 16.1 km/h 77% 0 mm
05:09 2.4 °C -1.2 °C 1016.1 hPa West 6.4 km/h 14.5 km/h 77% 0 mm
05:14 2.3 °C -1.3 °C 1016.1 hPa West 6.4 km/h 14.5 km/h 77% 0 mm
05:19 2.3 °C -1.3 °C 1016.5 hPa West 6.4 km/h 17.7 km/h 77% 0 mm
05:24 2.4 °C -1.2 °C 1016.5 hPa West 8 km/h 17.7 km/h 77% 0 mm
05:29 2.4 °C -1.2 °C 1016.8 hPa West 4.8 km/h 11.3 km/h 77% 0 mm
05:34 2.4 °C -1.2 °C 1016.8 hPa West 6.4 km/h 12.9 km/h 77% 0 mm
05:35 2.4 °C -1.2 °C 1016.8 hPa West 4.8 km/h 12.9 km/h 77% 0 mm
05:39 2.4 °C -1.2 °C 1016.5 hPa West 4.8 km/h 12.9 km/h 77% 0 mm
05:44 2.3 °C -1.3 °C 1016.8 hPa West 6.4 km/h 12.9 km/h 77% 0 mm
05:49 2.2 °C -1.4 °C 1016.8 hPa West 8 km/h 12.9 km/h 77% 0 mm
05:54 2 °C -1.6 °C 1016.8 hPa West 4.8 km/h 9.7 km/h 77% 0 mm
05:59 1.8 °C -1.8 °C 1017.2 hPa WNW 3.2 km/h 9.7 km/h 77% 0 mm
06:04 1.8 °C -1.8 °C 1017.2 hPa West 6.4 km/h 12.9 km/h 77% 0 mm
06:09 1.7 °C -1.9 °C 1017.5 hPa West 6.4 km/h 12.9 km/h 77% 0 mm
06:14 1.7 °C -1.8 °C 1017.5 hPa West 6.4 km/h 11.3 km/h 78% 0 mm
06:19 1.6 °C -1.8 °C 1017.5 hPa West 6.4 km/h 11.3 km/h 78% 0 mm
06:24 1.6 °C -1.8 °C 1017.8 hPa West 6.4 km/h 11.3 km/h 78% 0 mm
06:29 1.6 °C -1.8 °C 1017.8 hPa West 6.4 km/h 14.5 km/h 78% 0 mm
06:34 1.6 °C -1.8 °C 1018.2 hPa West 4.8 km/h 11.3 km/h 78% 0 mm
06:39 1.7 °C -1.8 °C 1018.2 hPa West 6.4 km/h 12.9 km/h 78% 0 mm
06:44 1.7 °C -1.8 °C 1018.2 hPa West 6.4 km/h 12.9 km/h 78% 0 mm
06:49 1.7 °C -1.7 °C 1018.2 hPa West 6.4 km/h 12.9 km/h 78% 0 mm
06:54 1.7 °C -1.8 °C 1018.2 hPa West 4.8 km/h 8 km/h 78% 0 mm
06:59 1.6 °C -1.9 °C 1018.2 hPa West 6.4 km/h 12.9 km/h 78% 0 mm
07:04 1.6 °C -1.9 °C 1018.2 hPa West 8 km/h 14.5 km/h 78% 0 mm
07:09 1.6 °C -1.9 °C 1018.5 hPa West 6.4 km/h 14.5 km/h 78% 0 mm
07:14 1.5 °C -1.9 °C 1018.5 hPa West 6.4 km/h 11.3 km/h 78% 0 mm
07:19 1.4 °C -2 °C 1018.5 hPa West 6.4 km/h 14.5 km/h 78% 0 mm
07:24 1.4 °C -2.1 °C 1018.5 hPa West 3.2 km/h 11.3 km/h 78% 0 mm
07:29 1.3 °C -2.1 °C 1018.5 hPa West 3.2 km/h 8 km/h 78% 0 mm
07:34 1.3 °C -2.1 °C 1018.5 hPa WNW 4.8 km/h 11.3 km/h 78% 0 mm
07:39 1.2 °C -2.2 °C 1018.8 hPa West 6.4 km/h 9.7 km/h 78% 0 mm
07:44 1.2 °C -2.2 °C 1018.8 hPa West 4.8 km/h 9.7 km/h 78% 0 mm
07:49 1.2 °C -2.1 °C 1018.8 hPa West 3.2 km/h 8 km/h 79% 0 mm
07:54 1.2 °C -2.1 °C 1018.8 hPa West 4.8 km/h 6.4 km/h 79% 0 mm
07:59 1.3 °C -1.9 °C 1018.8 hPa West 3.2 km/h 8 km/h 79% 0 mm
08:04 1.6 °C -1.7 °C 1018.8 hPa Calm   9.7 km/h 79% 0 mm
08:09 1.7 °C -1.7 °C 1019.2 hPa West 6.4 km/h 9.7 km/h 78% 0 mm
08:14 1.8 °C -1.8 °C 1018.8 hPa West 4.8 km/h 9.7 km/h 77% 0 mm
08:19 2 °C -1.9 °C 1019.2 hPa West 4.8 km/h 9.7 km/h 75% 0 mm
08:24 2.1 °C -1.9 °C 1019.2 hPa West 4.8 km/h 8 km/h 75% 0 mm
08:29 2.1 °C -2.1 °C 1019.2 hPa West 6.4 km/h 11.3 km/h 74% 0 mm
08:34 2.2 °C -2.1 °C 1019.5 hPa WNW 8 km/h 11.3 km/h 73% 0 mm
08:39 2.2 °C -2.1 °C 1019.5 hPa WNW 4.8 km/h 12.9 km/h 73% 0 mm
08:44 2.3 °C -2 °C 1019.5 hPa West 4.8 km/h 6.4 km/h 73% 0 mm
08:49 2.4 °C -2.2 °C 1019.9 hPa West 4.8 km/h 9.7 km/h 72% 0 mm
08:54 2.6 °C -2.1 °C 1019.9 hPa West 6.4 km/h 9.7 km/h 71% 0 mm
08:59 2.8 °C -1.9 °C 1019.9 hPa West 4.8 km/h 9.7 km/h 71% 0 mm
09:04 2.8 °C -1.9 °C 1019.9 hPa West 4.8 km/h 11.3 km/h 71% 0 mm
09:09 2.9 °C -2.1 °C 1019.9 hPa West 6.4 km/h 17.7 km/h 70% 0 mm
09:10 2.9 °C -2.1 °C 1019.9 hPa West 9.7 km/h 17.7 km/h 70% 0 mm
09:19 3.2 °C -2.2 °C 1020.2 hPa West 8 km/h 14.5 km/h 68% 0 mm
09:24 3.2 °C -2.3 °C 1020.2 hPa West 8 km/h 14.5 km/h 67% 0 mm
09:29 3.4 °C -2.1 °C 1020.2 hPa WNW 8 km/h 14.5 km/h 67% 0 mm
09:34 3.7 °C -2.1 °C 1020.2 hPa SW 8 km/h 12.9 km/h 66% 0 mm
09:39 3.8 °C -2.2 °C 1020.2 hPa WNW 6.4 km/h 14.5 km/h 65% 0 mm
09:44 3.9 °C -2.1 °C 1020.2 hPa WNW 12.9 km/h 12.9 km/h 65% 0 mm
09:49 3.8 °C -2.6 °C 1020.2 hPa West 8 km/h 17.7 km/h 63% 0 mm
09:54 4.1 °C -2.4 °C 1020.2 hPa WNW 9.7 km/h 17.7 km/h 63% 0 mm
09:59 4.2 °C -2.4 °C 1020.2 hPa WNW 8 km/h 19.3 km/h 62% 0 mm
10:04 4.4 °C -2.4 °C 1020.2 hPa WNW 6.4 km/h 19.3 km/h 61% 0 mm
10:14 4.6 °C -2.6 °C 1020.2 hPa WNW 6.4 km/h 12.9 km/h 60% 0 mm
10:19 4.8 °C -2.3 °C 1020.5 hPa West 14.5 km/h 17.7 km/h 60% 0 mm
10:24 4.8 °C -2.3 °C 1020.5 hPa NW 4.8 km/h 14.5 km/h 60% 0 mm
10:29 4.8 °C -2.6 °C 1020.9 hPa WNW 9.7 km/h 17.7 km/h 59% 0 mm
10:34 5 °C -2.3 °C 1020.9 hPa NW 4.8 km/h 16.1 km/h 59% 0 mm
10:39 4.9 °C -2.4 °C 1021.2 hPa NNW 1.6 km/h 17.7 km/h 59% 0 mm
10:44 5.1 °C -2.3 °C 1021.2 hPa NW 9.7 km/h 14.5 km/h 59% 0 mm
10:49 5.2 °C -2.4 °C 1021.2 hPa West 6.4 km/h 16.1 km/h 58% 0 mm
10:54 5.2 °C -2.4 °C 1021.2 hPa WNW 9.7 km/h 17.7 km/h 58% 0 mm
10:59 5.3 °C -1.9 °C 1021.2 hPa West 8 km/h 17.7 km/h 60% 0 mm
11:04 5.7 °C -1.4 °C 1021.2 hPa WNW 8 km/h 16.1 km/h 60% 0 mm
11:09 5.6 °C -0.9 °C 1021.2 hPa NNW 8 km/h 16.1 km/h 63% 0 mm
11:14 4.7 °C -1.7 °C 1021.2 hPa NNW 8 km/h 16.1 km/h 63% 0 mm
11:19 4.3 °C -1.7 °C 1021.2 hPa NW 6.4 km/h 16.1 km/h 65% 0 mm
11:24 4.2 °C -1.8 °C 1021.2 hPa NW 9.7 km/h 12.9 km/h 65% 0 mm
11:29 4.6 °C -1.6 °C 1021.2 hPa NW 11.3 km/h 12.9 km/h 64% 0 mm
11:34 4.4 °C -2 °C 1021.2 hPa NNW 6.4 km/h 12.9 km/h 63% 0 mm
11:39 4.8 °C -1.4 °C 1021.2 hPa West 6.4 km/h 16.1 km/h 64% 0 mm
11:44 5.3 °C -1.2 °C 1021.2 hPa NW 1.6 km/h 11.3 km/h 63% 0 mm
11:49 5.3 °C -1.6 °C 1021.2 hPa NW 4.8 km/h 14.5 km/h 61% 0 mm
11:54 5.1 °C -1.8 °C 1021.2 hPa WNW 6.4 km/h 14.5 km/h 61% 0 mm
11:59 4.9 °C -1.6 °C 1020.9 hPa NW 4.8 km/h 14.5 km/h 63% 0 mm
12:04 4.6 °C -2.1 °C 1021.2 hPa NNW 6.4 km/h 12.9 km/h 62% 0 mm
12:09 4.6 °C -2.1 °C 1021.2 hPa NNW 4.8 km/h 12.9 km/h 62% 0 mm
12:14 4.4 °C -2.2 °C 1020.9 hPa NNW 4.8 km/h 12.9 km/h 62% 0 mm
12:19 4.5 °C -2.2 °C 1020.9 hPa North 6.4 km/h 14.5 km/h 62% 0 mm
12:24 4.4 °C -2.1 °C 1020.9 hPa NNW 4.8 km/h 14.5 km/h 63% 0 mm
12:29 4.9 °C -1.7 °C 1020.9 hPa NNW 4.8 km/h 12.9 km/h 62% 0 mm
12:34 5.1 °C -2.1 °C 1020.9 hPa NW 12.9 km/h 14.5 km/h 60% 0 mm
12:39 4.4 °C -2.2 °C 1021.2 hPa WNW 1.6 km/h 12.9 km/h 62% 0 mm
12:44 5.6 °C -1.2 °C 1021.2 hPa NW 4.8 km/h 8 km/h 62% 0 mm
12:49 5.5 °C -1.2 °C 1021.2 hPa NW 6.4 km/h 9.7 km/h 62% 0 mm
12:54 5.9 °C -1.4 °C 1021.2 hPa NW 6.4 km/h 14.5 km/h 59% 0 mm
12:59 6.2 °C -1.3 °C 1021.6 hPa NNW 3.2 km/h 12.9 km/h 59% 0 mm
13:04 6.1 °C -1.6 °C 1021.6 hPa NNW 4.8 km/h 12.9 km/h 58% 0 mm
13:09 5.3 °C -1.8 °C 1021.6 hPa NW 4.8 km/h 11.3 km/h 60% 0 mm
13:14 5.2 °C -1.3 °C 1021.6 hPa NW 6.4 km/h 11.3 km/h 63% 0 mm
13:19 4.7 °C -1.8 °C 1021.6 hPa NNW 6.4 km/h 11.3 km/h 63% 0 mm
13:24 4.5 °C -1.9 °C 1021.2 hPa NNW 6.4 km/h 11.3 km/h 63% 0 mm
13:29 4.5 °C -1.9 °C 1021.2 hPa NNW 4.8 km/h 11.3 km/h 63% 0 mm
13:34 4.4 °C -2 °C 1021.2 hPa WNW 3.2 km/h 9.7 km/h 63% 0 mm
13:39 4.2 °C -2 °C 1020.9 hPa NW 3.2 km/h 8 km/h 64% 0 mm
13:44 4.7 °C -1.8 °C 1021.2 hPa NW 1.6 km/h 9.7 km/h 63% 0 mm
13:49 4.9 °C -2.2 °C 1021.2 hPa Calm   4.8 km/h 60% 0 mm
13:54 5.2 °C -1.7 °C 1021.2 hPa West 3.2 km/h 8 km/h 61% 0 mm
13:59 4.9 °C -1.8 °C 1021.2 hPa SSW 1.6 km/h 9.7 km/h 62% 0 mm
14:04 4.9 °C -1.9 °C 1021.2 hPa SW 4.8 km/h 9.7 km/h 61% 0 mm
14:09 4.8 °C -1.9 °C 1021.2 hPa West 3.2 km/h 9.7 km/h 62% 0 mm
14:14 4.6 °C -1.9 °C 1021.2 hPa West 4.8 km/h 12.9 km/h 63% 0 mm
14:19 4.6 °C -1.9 °C 1021.6 hPa Calm   9.7 km/h 63% 0 mm
14:24 4.7 °C -1.6 °C 1021.6 hPa NW 3.2 km/h 6.4 km/h 64% 0 mm
14:29 4.6 °C -2.1 °C 1021.6 hPa NNW 4.8 km/h 4.8 km/h 62% 0 mm
14:34 4.6 °C -1.7 °C 1021.6 hPa NNW 3.2 km/h 6.4 km/h 64% 0 mm
14:39 4.5 °C -1.9 °C 1021.6 hPa NNW 1.6 km/h 6.4 km/h 63% 0 mm
14:44 4.4 °C -1.8 °C 1021.6 hPa NNW 1.6 km/h 9.7 km/h 64% 0 mm
14:49 4.3 °C -1.9 °C 1021.6 hPa NNW 4.8 km/h 8 km/h 64% 0 mm
14:54 4.3 °C -1.9 °C 1021.6 hPa NNW 3.2 km/h 8 km/h 64% 0 mm
14:59 4.6 °C -1.7 °C 1021.6 hPa NNW 6.4 km/h 8 km/h 64% 0 mm
15:04 4.6 °C -1.8 °C 1021.6 hPa North 4.8 km/h 8 km/h 63% 0 mm
15:09 4.7 °C -1.7 °C 1021.6 hPa NNW 4.8 km/h 8 km/h 63% 0 mm
15:14 4.9 °C -1.5 °C 1021.9 hPa NNW 6.4 km/h 6.4 km/h 63% 0 mm
15:19 4.7 °C -1.7 °C 1021.6 hPa NNW 1.6 km/h 6.4 km/h 63% 0 mm
15:24 4.5 °C -1.9 °C 1021.6 hPa Calm   4.8 km/h 63% 0 mm
15:29 4.3 °C -1.9 °C 1021.9 hPa NNW 1.6 km/h 8 km/h 64% 0 mm
15:34 4.2 °C -1.8 °C 1021.9 hPa North 1.6 km/h 8 km/h 65% 0 mm
15:39 4.2 °C -2.1 °C 1021.9 hPa North 1.6 km/h 4.8 km/h 64% 0 mm
15:44 4.1 °C -2.1 °C 1021.9 hPa North 3.2 km/h 4.8 km/h 64% 0 mm
15:49 4.1 °C -2.2 °C 1022.2 hPa North 1.6 km/h 4.8 km/h 64% 0 mm
15:54 4 °C -2 °C 1022.2 hPa Calm   1.6 km/h 65% 0 mm
15:59 4 °C -2 °C 1022.2 hPa SW 4.8 km/h 6.4 km/h 65% 0 mm
16:04 3.9 °C -1.8 °C 1022.2 hPa WSW 1.6 km/h 9.7 km/h 66% 0 mm
16:09 3.9 °C -1.8 °C 1022.2 hPa WSW 1.6 km/h 9.7 km/h 66% 0 mm
16:14 3.8 °C -1.9 °C 1022.2 hPa West 3.2 km/h 4.8 km/h 66% 0 mm
16:19 3.8 °C -1.9 °C 1022.2 hPa WNW 4.8 km/h 4.8 km/h 66% 0 mm
16:24 3.8 °C -1.9 °C 1022.2 hPa WSW 4.8 km/h 8 km/h 66% 0 mm
16:29 3.8 °C -1.8 °C 1022.6 hPa Calm   6.4 km/h 67% 0 mm
16:34 3.7 °C -1.9 °C 1022.6 hPa Calm     67% 0 mm
16:39 3.4 °C -2.1 °C 1022.6 hPa Calm   6.4 km/h 67% 0 mm
16:44 3.3 °C -2.3 °C 1022.6 hPa ENE 1.6 km/h 6.4 km/h 67% 0 mm
16:49 3.2 °C -2.2 °C 1022.6 hPa ENE 3.2 km/h 8 km/h 68% 0 mm
16:54 3 °C -2.3 °C 1022.9 hPa ENE 3.2 km/h 8 km/h 68% 0 mm
16:59 2.8 °C -2.5 °C 1022.9 hPa Calm   3.2 km/h 68% 0 mm
17:04 2.7 °C -2.4 °C 1022.6 hPa NE 1.6 km/h 6.4 km/h 69% 0 mm
17:09 2.6 °C -2.6 °C 1022.6 hPa NE 3.2 km/h 8 km/h 69% 0 mm
17:14 2.5 °C -2.4 °C 1022.6 hPa Calm   6.4 km/h 70% 0 mm
17:19 2.4 °C -2.5 °C 1022.9 hPa ENE 3.2 km/h 11.3 km/h 70% 0 mm
17:24 2.3 °C -2.6 °C 1022.9 hPa NE 6.4 km/h 14.5 km/h 70% 0 mm
17:29 2.2 °C -2.7 °C 1022.6 hPa ENE 11.3 km/h 12.9 km/h 70% 0 mm
17:34 2.2 °C -2.7 °C 1022.9 hPa NE 4.8 km/h 11.3 km/h 70% 0 mm
17:39 2.1 °C -2.8 °C 1022.6 hPa NE 4.8 km/h 11.3 km/h 70% 0 mm
17:44 1.9 °C -2.9 °C 1022.6 hPa ENE 4.8 km/h 11.3 km/h 70% 0 mm
17:49 1.8 °C -2.9 °C 1022.9 hPa ENE 4.8 km/h 12.9 km/h 71% 0 mm
17:54 1.7 °C -3 °C 1022.9 hPa ENE 4.8 km/h 12.9 km/h 71% 0 mm
17:59 1.7 °C -3.1 °C 1022.9 hPa NE 4.8 km/h 12.9 km/h 71% 0 mm
18:04 1.6 °C -3.1 °C 1022.9 hPa NE 4.8 km/h 14.5 km/h 71% 0 mm
18:09 1.4 °C -3.2 °C 1022.9 hPa ENE 6.4 km/h 14.5 km/h 71% 0 mm
18:14 1.3 °C -3.2 °C 1022.6 hPa ENE 4.8 km/h 12.9 km/h 72% 0 mm
18:19 1.3 °C -3.2 °C 1022.6 hPa ENE 1.6 km/h 9.7 km/h 72% 0 mm
18:24 1.2 °C -3.3 °C 1022.6 hPa East 4.8 km/h 11.3 km/h 72% 0 mm
18:29 1.1 °C -3.4 °C 1022.6 hPa East 1.6 km/h 9.7 km/h 72% 0 mm
18:34 0.9 °C -3.4 °C 1022.6 hPa East 9.7 km/h 9.7 km/h 73% 0 mm
18:39 0.8 °C -3.4 °C 1022.6 hPa East 3.2 km/h 11.3 km/h 73% 0 mm
18:44 0.7 °C -3.6 °C 1022.9 hPa ENE 4.8 km/h 11.3 km/h 73% 0 mm
18:49 0.6 °C -3.7 °C 1023.2 hPa ENE 4.8 km/h 11.3 km/h 73% 0 mm
18:54 0.5 °C -3.6 °C 1022.9 hPa Calm   8 km/h 74% 0 mm
18:59 0.4 °C -3.7 °C 1022.9 hPa East 8 km/h 8 km/h 74% 0 mm
19:04 0.4 °C -3.7 °C 1022.9 hPa ENE 3.2 km/h 12.9 km/h 74% 0 mm
19:09 0.3 °C -3.6 °C 1022.9 hPa East 3.2 km/h 8 km/h 75% 0 mm
19:14 0.2 °C -3.7 °C 1022.9 hPa ENE 4.8 km/h 11.3 km/h 75% 0 mm
19:19 0.2 °C -3.7 °C 1022.9 hPa East 4.8 km/h 14.5 km/h 75% 0 mm
19:24 0.1 °C -3.8 °C 1022.9 hPa East 4.8 km/h 14.5 km/h 75% 0 mm
19:29 -0.1 °C -3.9 °C 1022.9 hPa East 3.2 km/h 11.3 km/h 75% 0 mm
19:34 -0.1 °C -3.8 °C 1022.6 hPa NE 3.2 km/h 11.3 km/h 76% 0 mm
19:39 -0.2 °C -3.9 °C 1022.6 hPa ENE 3.2 km/h 8 km/h 76% 0 mm
19:44 -0.3 °C -4 °C 1022.6 hPa East 3.2 km/h 8 km/h 76% 0 mm
19:49 -0.3 °C -3.9 °C 1022.6 hPa East 4.8 km/h 8 km/h 77% 0 mm
19:54 -0.4 °C -3.9 °C 1022.6 hPa East 3.2 km/h 9.7 km/h 77% 0 mm
19:59 -0.4 °C -4 °C 1022.9 hPa East 3.2 km/h 9.7 km/h 77% 0 mm
20:04 -0.5 °C -4.1 °C 1022.9 hPa ENE 6.4 km/h 11.3 km/h 77% 0 mm
20:09 -0.6 °C -4.1 °C 1022.9 hPa East 4.8 km/h 9.7 km/h 77% 0 mm
20:14 -0.6 °C -3.9 °C 1022.9 hPa East 3.2 km/h 9.7 km/h 78% 0 mm
20:19 -0.6 °C -4 °C 1022.9 hPa East 3.2 km/h 8 km/h 78% 0 mm
20:24 -0.6 °C -4 °C 1022.9 hPa East 3.2 km/h 8 km/h 78% 0 mm
20:29 -0.7 °C -4.1 °C 1022.6 hPa ENE 3.2 km/h 9.7 km/h 78% 0 mm
20:34 -0.7 °C -4.1 °C 1022.9 hPa East 3.2 km/h 9.7 km/h 78% 0 mm
20:39 -0.8 °C -3.9 °C 1022.9 hPa East 8 km/h 8 km/h 79% 0 mm
20:44 -0.8 °C -4 °C 1022.9 hPa East 1.6 km/h 8 km/h 79% 0 mm
20:49 -0.8 °C -4 °C 1023.2 hPa East 3.2 km/h 8 km/h 79% 0 mm
20:54 -0.9 °C -4.1 °C 1023.2 hPa East 1.6 km/h 8 km/h 79% 0 mm
20:59 -0.9 °C -4.1 °C 1023.2 hPa ENE 1.6 km/h 6.4 km/h 79% 0 mm
21:04 -0.9 °C -4.1 °C 1023.2 hPa East 3.2 km/h 9.7 km/h 79% 0 mm
21:09 -0.9 °C -4.1 °C 1023.2 hPa East 3.2 km/h 8 km/h 79% 0 mm
21:14 -0.9 °C -4.1 °C 1023.2 hPa ENE 1.6 km/h 9.7 km/h 79% 0 mm
21:19 -0.9 °C -4.1 °C 1023.2 hPa ENE 3.2 km/h 9.7 km/h 79% 0 mm
21:24 -0.9 °C -4.1 °C 1023.2 hPa ENE 3.2 km/h 8 km/h 79% 0 mm
21:29 -0.9 °C -3.9 °C 1022.9 hPa ENE 3.2 km/h 9.7 km/h 80% 0 mm
21:34 -0.9 °C -3.9 °C 1022.9 hPa East 3.2 km/h 9.7 km/h 80% 0 mm
21:39 -1 °C -4 °C 1022.9 hPa East 3.2 km/h 8 km/h 80% 0 mm
21:44 -1.1 °C -4.1 °C 1022.9 hPa Calm   4.8 km/h 80% 0 mm
21:49 -1.1 °C -4.1 °C 1022.9 hPa East 1.6 km/h 4.8 km/h 80% 0 mm
21:54 -1.1 °C -4.1 °C 1022.9 hPa East 1.6 km/h 4.8 km/h 80% 0 mm
21:59 -1.2 °C -4.2 °C 1022.9 hPa East 1.6 km/h 8 km/h 80% 0 mm
22:04 -1.2 °C -4 °C 1022.9 hPa ESE 6.4 km/h 8 km/h 81% 0 mm
22:09 -1.2 °C -4.2 °C 1022.9 hPa ESE 1.6 km/h 8 km/h 80% 0 mm
22:14 -1.3 °C -4.1 °C 1022.6 hPa East 1.6 km/h 4.8 km/h 81% 0 mm
22:19 -1.3 °C -4.1 °C 1022.6 hPa East 1.6 km/h 9.7 km/h 81% 0 mm
22:24 -1.3 °C -4.2 °C 1022.9 hPa East 1.6 km/h 9.7 km/h 81% 0 mm
22:29 -1.4 °C -4.2 °C 1022.9 hPa East 3.2 km/h 8 km/h 81% 0 mm
22:34 -1.4 °C -4.3 °C 1022.6 hPa East 1.6 km/h 4.8 km/h 81% 0 mm
22:39 -1.5 °C -4.3 °C 1022.9 hPa East 3.2 km/h 8 km/h 81% 0 mm
22:44 -1.4 °C -4.1 °C 1022.6 hPa East 1.6 km/h 8 km/h 82% 0 mm
22:49 -1.5 °C -4.2 °C 1022.6 hPa East 1.6 km/h 6.4 km/h 82% 0 mm
22:54 -1.5 °C -4.2 °C 1022.6 hPa East 3.2 km/h 8 km/h 82% 0 mm
22:59 -1.5 °C -4.2 °C 1022.9 hPa ENE 1.6 km/h 6.4 km/h 82% 0 mm
23:04 -1.4 °C -4.1 °C 1022.9 hPa East 3.2 km/h 9.7 km/h 82% 0 mm
23:09 -1.4 °C -4.1 °C 1022.6 hPa East 4.8 km/h 8 km/h 82% 0 mm
23:14 -1.3 °C -4 °C 1022.6 hPa ENE 1.6 km/h 8 km/h 82% 0 mm
23:19 -1.3 °C -3.9 °C 1022.6 hPa ENE 1.6 km/h 4.8 km/h 82% 0 mm
23:24 -1.3 °C -3.9 °C 1022.6 hPa East 4.8 km/h 8 km/h 82% 0 mm
23:29 -1.3 °C -4 °C 1022.6 hPa ENE 1.6 km/h 9.7 km/h 82% 0 mm
23:34 -1.3 °C -3.9 °C 1022.6 hPa East 1.6 km/h 9.7 km/h 82% 0 mm
23:39 -1.3 °C -4 °C 1022.6 hPa East 1.6 km/h 4.8 km/h 82% 0 mm
23:44 -1.3 °C -4 °C 1022.6 hPa Calm   8 km/h 82% 0 mm
23:49 -1.4 °C -4.1 °C 1022.6 hPa East 1.6 km/h 9.7 km/h 82% 0 mm
23:54 -1.4 °C -4.1 °C 1022.6 hPa East 1.6 km/h 9.7 km/h 82% 0 mm
23:59 -1.3 °C -4 °C 1022.6 hPa East 1.6 km/h 8 km/h 82% 0 mm
Buffalo, New York, USA
Compliments of Weather Underground - 2.5 mb